FW2567 Weather Reports


time (UTC)temp
C
wind
direction
speed
KPH
gust
KPH
rain 1hr
cm
rain 24hr
cm
rain mn
cm
humidity
%
barometer
mb
20260503203031 27 92 8.0 19.3 0.00 0.00 0.00 28 1014.3
20260503201608 27 76 8.0 19.3 0.00 0.00 0.00 28 1014.5
20260503200033 28 66 8.0 22.5 0.00 0.00 0.00 28 1014.6
20260503194530 28 81 8.0 19.3 0.00 0.00 0.00 28 1014.8
20260503193030 28 85 11.3 27.4 0.00 0.00 0.00 27 1014.9
20260503191532 29 97 6.4 22.5 0.00 0.00 0.00 28 1015.0
20260503190029 29 103 6.4 16.1 0.00 0.00 0.00 29 1015.0
20260503184529 28 46 3.2 14.5 0.00 0.00 0.00 33 1015.2
20260503183028 27 359 6.4 14.5 0.00 0.00 0.00 35 1015.3
20260503181530 27 5 3.2 11.3 0.00 0.00 0.00 36 1015.4
20260503180030 27 333 3.2 8.0 0.00 0.00 0.00 37 1015.6
20260503174531 27 356 0.0 4.8 0.00 0.00 0.00 37 1015.7
20260503171529 26 25 0.0 6.4 0.00 0.00 0.00 39 1015.9
20260503071531 10 202 3.2 6.4 0.00 0.00 0.00 80 1016.3
20260503070107 11 144 1.6 4.8 0.00 0.00 0.00 77 1016.3
20260503054540 11 220 0.0 4.8 0.00 0.00 0.00 81 1016.0
20260503051531 12 145 1.6 4.8 0.00 0.00 0.00 77 1016.0
20260503050108 12 154 1.6 6.4 0.00 0.00 0.00 75 1015.9
20260503044531 -17 0 0.0 0.0 0.00 0.00 0.00 100
20260503043032 14 247 0.0 3.2 0.00 0.00 0.00 69 1015.8
20260503041531 15 249 0.0 4.8 0.00 0.00 0.00 66 1015.7
20260503040039 17 237 1.6 4.8 0.00 0.00 0.00 60 1015.5
20260503034532 17 157 3.2 8.0 0.00 0.00 0.00 60 1015.2
20260503033029 18 158 4.8 6.4 0.00 0.00 0.00 60 1014.9
20260503031531 18 157 4.8 9.7 0.00 0.00 0.00 62 1014.7
20260503030032 18 154 3.2 6.4 0.00 0.00 0.00 63 1014.4
20260503024606 19 200 0.0 3.2 0.00 0.00 0.00 62 1014.2
20260503023031 20 202 0.0 0.0 0.00 0.00 0.00 58 1014.1
20260503020106 22 177 3.2 4.8 0.00 0.00 0.00 50 1014.0
20260503014530 23 175 1.6 4.8 0.00 0.00 0.00 46 1013.9
20260503013031 24 145 0.0 3.2 0.00 0.00 0.00 39 1014.0
20260503011528 25 145 1.6 9.7 0.00 0.00 0.00 37 1013.9
20260503004530 25 136 0.0 4.8 0.00 0.00 0.00 36 1014.0
20260503000151 25 61 8.0 20.9 0.00 0.00 0.00 35 1014.0
20260502231532 26 24 6.4 19.3 0.00 0.00 0.00 32 1014.6
20260502230034 27 38 8.0 22.5 0.00 0.00 0.00 33 1014.7
20260502224531 27 102 8.0 19.3 0.00 0.00 0.00 33 1014.8
20260502223108 27 101 9.7 20.9 0.00 0.00 0.00 33 1014.9
20260502220033 26 344 6.4 17.7 0.00 0.00 0.00 39 1015.1
20260502214531 25 356 3.2 9.7 0.00 0.00 0.00 43 1015.3
20260502213108 23 350 3.2 9.7 0.00 0.00 0.00 46 1015.5
20260502211533 23 337 4.8 12.9 0.00 0.00 0.00 48 1015.7
20260502210030 22 294 4.8 11.3 0.00 0.00 0.00 51 1015.9
20260502204530 22 278 4.8 9.7 0.00 0.00 0.00 52 1016.0